Location: Acheville
(50.3840°N, 2.8827°E)
Time: 11:07:17
(UTC+00:00)

Cosmos 1844 Rocket - Pass Details

Date: 24 October 2021
Orbit: 826 x 843 km, 71.0° (Epoch: 01 December)

Event Time Altitude Azimuth Distance (km) Brightness Sun altitude
Rises 17:18:51 0° 333° (NNW) 3,379 6.1 -7.1°
Reaches altitude 10° 17:21:30 10° 342° (NNW) 2,441 5.2 -7.5°
Maximum altitude 17:26:38 36° 48° (NE) 1,287 3.3 -8.3°
Drops below altitude 10° 17:31:45 10° 115° (ESE) 2,428 4.6 -9.1°
Enters shadow 17:33:15 - 121° (ESE) 2,956 5.1 -9.3°
